Year,Month,Day,Hour,Minute,Value (Times are PST for temperature in C)
2018,02,20,00,00,-2.10
2018,02,20,00,01,-2.10
2018,02,20,00,02,-2.10
2018,02,20,00,03,-2.10
2018,02,20,00,04,-2.10
2018,02,20,00,05,-2.10
2018,02,20,00,06,-2.10
2018,02,20,00,07,-2.10
2018,02,20,00,08,-2.10
2018,02,20,00,09,-2.10
2018,02,20,00,10,-2.10
2018,02,20,00,11,-2.10
2018,02,20,00,12,-2.20
2018,02,20,00,13,-2.20
2018,02,20,00,14,-2.20
2018,02,20,00,15,-2.20
2018,02,20,00,16,-2.20
2018,02,20,00,17,-2.20
2018,02,20,00,18,-2.20
2018,02,20,00,19,-2.20
2018,02,20,00,20,-2.20
2018,02,20,00,21,-2.20
2018,02,20,00,22,-2.20
2018,02,20,00,23,-2.20
2018,02,20,00,24,-2.20
2018,02,20,00,25,-2.20
2018,02,20,00,26,-2.20
2018,02,20,00,27,-2.20
2018,02,20,00,28,-2.30
2018,02,20,00,29,-2.30
2018,02,20,00,30,-2.30
2018,02,20,00,31,-2.30
2018,02,20,00,32,-2.30
2018,02,20,00,33,-2.30
2018,02,20,00,34,-2.30
2018,02,20,00,35,-2.30
2018,02,20,00,36,-2.30
2018,02,20,00,37,-2.30
2018,02,20,00,38,-2.30
2018,02,20,00,39,-2.30
2018,02,20,00,40,-2.30
2018,02,20,00,41,-2.30
2018,02,20,00,42,-2.30
2018,02,20,00,43,-2.30
2018,02,20,00,44,-2.30
2018,02,20,00,45,-2.30
2018,02,20,00,46,-2.30
2018,02,20,00,47,-2.40
2018,02,20,00,48,-2.40
2018,02,20,00,49,-2.40
2018,02,20,00,50,-2.40
2018,02,20,00,51,-2.40
2018,02,20,00,52,-2.40
2018,02,20,00,53,-2.40
2018,02,20,00,54,-2.40
2018,02,20,00,55,-2.40
2018,02,20,00,56,-2.40
2018,02,20,00,57,-2.40
2018,02,20,00,58,-2.40
2018,02,20,00,59,-2.50
2018,02,20,01,00,-2.50
2018,02,20,01,01,-2.50
2018,02,20,01,02,-2.50
2018,02,20,01,03,-2.60
2018,02,20,01,04,-2.60
2018,02,20,01,05,-2.60
2018,02,20,01,06,-2.60
2018,02,20,01,07,-2.60
2018,02,20,01,08,-2.70
2018,02,20,01,09,-2.70
2018,02,20,01,10,-2.70
2018,02,20,01,11,-2.70
2018,02,20,01,12,-2.70
2018,02,20,01,13,-2.70
2018,02,20,01,14,-2.70
2018,02,20,01,15,-2.80
2018,02,20,01,16,-2.80
2018,02,20,01,17,-2.80
2018,02,20,01,18,-2.80
2018,02,20,01,19,-2.80
2018,02,20,01,20,-2.80
2018,02,20,01,21,-2.80
2018,02,20,01,22,-2.90
2018,02,20,01,23,-2.90
2018,02,20,01,24,-2.90
2018,02,20,01,25,-2.90
2018,02,20,01,26,-2.90
2018,02,20,01,27,-3.00
2018,02,20,01,28,-3.00
2018,02,20,01,29,-3.00
2018,02,20,01,30,-3.00
2018,02,20,01,31,-3.00
2018,02,20,01,32,-3.10
2018,02,20,01,33,-3.10
2018,02,20,01,34,-3.10
2018,02,20,01,35,-3.10
2018,02,20,01,36,-3.10
2018,02,20,01,37,-3.10
2018,02,20,01,38,-3.10
2018,02,20,01,39,-3.00
2018,02,20,01,40,-3.00
2018,02,20,01,41,-3.00
2018,02,20,01,42,-3.00
2018,02,20,01,43,-3.00
2018,02,20,01,44,-3.00
2018,02,20,01,45,-3.00
2018,02,20,01,46,-3.00
2018,02,20,01,47,-3.00
2018,02,20,01,48,-3.00
2018,02,20,01,49,-3.00
2018,02,20,01,50,-3.00
2018,02,20,01,51,-3.00
2018,02,20,01,52,-3.00
2018,02,20,01,53,-3.00
2018,02,20,01,54,-3.00
2018,02,20,01,55,-3.00
2018,02,20,01,56,-3.00
2018,02,20,01,57,-3.00
2018,02,20,01,58,-3.00
2018,02,20,01,59,-3.00
2018,02,20,02,00,-3.00
2018,02,20,02,01,-3.00
2018,02,20,02,02,-3.00
2018,02,20,02,03,-3.00
2018,02,20,02,04,-3.00
2018,02,20,02,05,-3.10
2018,02,20,02,06,-3.10
2018,02,20,02,07,-3.10
2018,02,20,02,08,-3.10
2018,02,20,02,09,-3.10
2018,02,20,02,10,-3.10
2018,02,20,02,11,-3.10
2018,02,20,02,12,-3.10
2018,02,20,02,13,-3.10
2018,02,20,02,14,-3.10
2018,02,20,02,15,-3.10
2018,02,20,02,16,-3.10
2018,02,20,02,17,-3.10
2018,02,20,02,18,-3.10
2018,02,20,02,19,-3.10
2018,02,20,02,20,-3.10
2018,02,20,02,21,-3.10
2018,02,20,02,22,-3.20
2018,02,20,02,23,-3.20
2018,02,20,02,24,-3.20
2018,02,20,02,25,-3.20
2018,02,20,02,26,-3.20
2018,02,20,02,27,-3.20
2018,02,20,02,28,-3.20
2018,02,20,02,29,-3.20
2018,02,20,02,30,-3.20
2018,02,20,02,31,-3.20
2018,02,20,02,32,-3.20
2018,02,20,02,33,-3.20
2018,02,20,02,34,-3.20
2018,02,20,02,35,-3.30
2018,02,20,02,36,-3.30
2018,02,20,02,37,-3.30
2018,02,20,02,38,-3.30
2018,02,20,02,39,-3.30
2018,02,20,02,40,-3.30
2018,02,20,02,41,-3.30
2018,02,20,02,42,-3.30
2018,02,20,02,43,-3.30
2018,02,20,02,44,-3.30
2018,02,20,02,45,-3.30
2018,02,20,02,46,-3.30
2018,02,20,02,47,-3.30
2018,02,20,02,48,-3.30
2018,02,20,02,49,-3.30
2018,02,20,02,50,-3.30
2018,02,20,02,51,-3.30
2018,02,20,02,52,-3.30
2018,02,20,02,53,-3.40
2018,02,20,02,54,-3.40
2018,02,20,02,55,-3.40
2018,02,20,02,56,-3.40
2018,02,20,02,57,-3.40
2018,02,20,02,58,-3.40
2018,02,20,02,59,-3.40
2018,02,20,03,00,-3.40
2018,02,20,03,01,-3.40
2018,02,20,03,02,-3.40
2018,02,20,03,03,-3.40
2018,02,20,03,04,-3.40
2018,02,20,03,05,-3.40
2018,02,20,03,06,-3.40
2018,02,20,03,07,-3.40
2018,02,20,03,08,-3.40
2018,02,20,03,09,-3.40
2018,02,20,03,10,-3.40
2018,02,20,03,11,-3.40
2018,02,20,03,12,-3.40
2018,02,20,03,13,-3.40
2018,02,20,03,14,-3.40
2018,02,20,03,15,-3.40
2018,02,20,03,16,-3.40
2018,02,20,03,17,-3.40
2018,02,20,03,18,-3.40
2018,02,20,03,19,-3.40
2018,02,20,03,20,-3.40
2018,02,20,03,21,-3.40
2018,02,20,03,22,-3.40
2018,02,20,03,23,-3.40
2018,02,20,03,24,-3.40
2018,02,20,03,25,-3.40
2018,02,20,03,26,-3.40
2018,02,20,03,27,-3.40
2018,02,20,03,28,-3.40
2018,02,20,03,29,-3.40
2018,02,20,08,01,-1.80
2018,02,20,08,02,-1.80
2018,02,20,08,03,-1.80
2018,02,20,08,04,-1.80
2018,02,20,08,05,-1.70
2018,02,20,08,06,-1.70
2018,02,20,08,07,-1.70
2018,02,20,08,08,-1.70
2018,02,20,08,09,-1.70
2018,02,20,08,10,-1.70
2018,02,20,08,11,-1.70
2018,02,20,08,12,-1.70
2018,02,20,08,13,-1.60
2018,02,20,08,14,-1.60
2018,02,20,08,15,-1.60
2018,02,20,08,16,-1.60
2018,02,20,08,17,-1.60
2018,02,20,08,18,-1.60
2018,02,20,08,19,-1.60
2018,02,20,08,20,-1.60
2018,02,20,08,21,-1.60
2018,02,20,08,22,-1.60
2018,02,20,08,23,-1.60
2018,02,20,08,24,-1.50
2018,02,20,08,25,-1.50
2018,02,20,08,26,-1.50
2018,02,20,08,27,-1.50
2018,02,20,08,28,-1.40
2018,02,20,08,29,-1.40
2018,02,20,08,30,-1.40
2018,02,20,08,31,-1.40
2018,02,20,08,32,-1.40
2018,02,20,08,33,-1.40
2018,02,20,08,34,-1.30
2018,02,20,08,35,-1.30
2018,02,20,08,36,-1.30
2018,02,20,08,37,-1.30
2018,02,20,08,38,-1.30
2018,02,20,08,39,-1.30
2018,02,20,08,40,-1.20
2018,02,20,08,41,-1.20
2018,02,20,08,42,-1.20
2018,02,20,08,43,-1.20
2018,02,20,08,44,-1.20
2018,02,20,08,45,-1.20
2018,02,20,08,46,-1.20
2018,02,20,08,47,-1.10
2018,02,20,08,48,-1.10
2018,02,20,08,49,-1.10
2018,02,20,08,50,-1.10
2018,02,20,08,51,-1.10
2018,02,20,08,52,-1.10
2018,02,20,08,53,-1.10
2018,02,20,08,54,-1.00
2018,02,20,08,55,-1.00
2018,02,20,08,56,-1.00
2018,02,20,08,57,-1.00
2018,02,20,08,58,-0.90
2018,02,20,08,59,-0.90
2018,02,20,09,00,-0.90
2018,02,20,09,01,-0.80
2018,02,20,09,02,-0.80
2018,02,20,09,03,-0.80
2018,02,20,09,04,-0.80
2018,02,20,09,05,-0.80
2018,02,20,09,06,-0.70
2018,02,20,09,07,-0.70
2018,02,20,09,08,-0.70
2018,02,20,09,09,-0.70
2018,02,20,09,10,-0.70
2018,02,20,09,11,-0.60
2018,02,20,09,12,-0.60
2018,02,20,09,13,-0.60
2018,02,20,09,14,-0.60
2018,02,20,09,15,-0.60
2018,02,20,09,16,-0.60
2018,02,20,09,17,-0.50
2018,02,20,09,18,-0.50
2018,02,20,09,19,-0.50
2018,02,20,09,20,-0.50
2018,02,20,09,21,-0.40
2018,02,20,09,22,-0.40
2018,02,20,09,23,-0.40
2018,02,20,09,24,-0.40
2018,02,20,09,25,-0.40
2018,02,20,09,26,-0.40
2018,02,20,09,27,-0.30
2018,02,20,09,28,-0.30
2018,02,20,09,29,-0.30
2018,02,20,09,30,-0.20
2018,02,20,09,31,-0.20
2018,02,20,09,32,-0.20
2018,02,20,09,33,-0.10
2018,02,20,09,34,-0.10
2018,02,20,09,35,-0.10
2018,02,20,09,36,-0.10
2018,02,20,09,37,-0.10
2018,02,20,09,38,0.00
2018,02,20,09,39,0.00
2018,02,20,09,40,0.00
2018,02,20,09,41,0.00
2018,02,20,09,42,0.10
2018,02,20,09,43,0.10
2018,02,20,09,44,0.10
2018,02,20,09,45,0.10
2018,02,20,09,46,0.10
2018,02,20,09,47,0.10
2018,02,20,09,48,0.10
2018,02,20,09,49,0.10
2018,02,20,09,50,0.10
2018,02,20,09,51,0.20
2018,02,20,09,52,0.20
2018,02,20,09,53,0.20
2018,02,20,09,54,0.20
2018,02,20,09,55,0.20
2018,02,20,09,56,0.20
2018,02,20,09,57,0.20
2018,02,20,09,58,0.20
2018,02,20,09,59,0.20
2018,02,20,10,00,0.20
2018,02,20,10,01,0.20
2018,02,20,10,02,0.30
2018,02,20,10,03,0.30
2018,02,20,10,04,0.30
2018,02,20,10,05,0.30
2018,02,20,10,06,0.30
2018,02,20,10,07,0.30
2018,02,20,10,08,0.30
2018,02,20,10,09,0.30
2018,02,20,10,10,0.30
2018,02,20,10,11,0.30
2018,02,20,10,12,0.30
2018,02,20,10,13,0.30
2018,02,20,10,14,0.40
2018,02,20,10,15,0.40
2018,02,20,10,16,0.40
2018,02,20,10,17,0.50
2018,02,20,10,18,0.50
2018,02,20,10,19,0.60
2018,02,20,10,20,0.70
2018,02,20,10,21,0.70
2018,02,20,10,22,0.70
2018,02,20,10,23,0.80
2018,02,20,10,24,0.80
2018,02,20,10,25,0.80
2018,02,20,10,26,0.80
2018,02,20,10,27,0.80
2018,02,20,10,28,0.80
2018,02,20,10,29,0.80
2018,02,20,10,30,0.70
2018,02,20,10,31,0.70
2018,02,20,10,32,0.70
2018,02,20,10,33,0.70
2018,02,20,10,34,0.70
2018,02,20,10,35,0.70
2018,02,20,10,36,0.70
2018,02,20,10,37,0.70
2018,02,20,10,38,0.70
2018,02,20,10,39,0.70
2018,02,20,10,40,0.80
2018,02,20,10,41,0.80
2018,02,20,10,42,0.80
2018,02,20,10,43,0.80
2018,02,20,10,44,0.80
2018,02,20,10,45,0.80
2018,02,20,10,46,0.80
2018,02,20,10,47,0.80
2018,02,20,10,48,0.80
2018,02,20,10,49,0.80
2018,02,20,10,50,0.80
2018,02,20,10,51,0.80
2018,02,20,10,52,0.90
2018,02,20,10,53,0.90
2018,02,20,10,54,0.90
2018,02,20,10,55,1.00
2018,02,20,10,56,1.00
2018,02,20,10,57,1.10
2018,02,20,10,58,1.10
2018,02,20,10,59,1.10
2018,02,20,11,00,1.10
2018,02,20,11,01,1.10
2018,02,20,11,02,1.20
2018,02,20,11,03,1.20
2018,02,20,11,04,1.20
2018,02,20,11,05,1.20
2018,02,20,11,06,1.20
2018,02,20,11,07,1.20
2018,02,20,11,08,1.20
2018,02,20,11,09,1.20
2018,02,20,11,10,1.20
2018,02,20,11,11,1.30
2018,02,20,11,12,1.30
2018,02,20,11,13,1.30
2018,02,20,11,14,1.30
2018,02,20,11,15,1.30
2018,02,20,11,16,1.30
2018,02,20,11,17,1.30
2018,02,20,11,18,1.30
2018,02,20,11,19,1.30
2018,02,20,11,20,1.20
2018,02,20,11,21,1.20
2018,02,20,11,22,1.20
2018,02,20,11,23,1.20
2018,02,20,11,24,1.20
2018,02,20,11,25,1.20
2018,02,20,11,26,1.20
2018,02,20,11,27,1.20
2018,02,20,11,28,1.20
2018,02,20,11,29,1.20
2018,02,20,11,30,1.20
2018,02,20,11,31,1.20
2018,02,20,11,32,1.10
2018,02,20,11,33,1.10
2018,02,20,11,34,1.10
2018,02,20,11,35,1.10
2018,02,20,11,36,1.20
2018,02,20,11,37,1.20
2018,02,20,11,38,1.20
2018,02,20,11,39,1.20
2018,02,20,11,40,1.30
2018,02,20,11,41,1.30
2018,02,20,11,42,1.30
2018,02,20,11,43,1.30
2018,02,20,11,44,1.30
2018,02,20,11,45,1.30
2018,02,20,11,46,1.30
2018,02,20,11,47,1.30
2018,02,20,11,48,1.40
2018,02,20,11,49,1.40
2018,02,20,11,50,1.40
2018,02,20,11,51,1.40
2018,02,20,11,52,1.40
2018,02,20,11,53,1.40
2018,02,20,11,54,1.40
2018,02,20,11,55,1.40
2018,02,20,11,56,1.40
2018,02,20,11,57,1.50
2018,02,20,11,58,1.50
2018,02,20,11,59,1.50
2018,02,20,12,00,1.50
2018,02,20,12,01,1.60
2018,02,20,12,02,1.60
2018,02,20,12,03,1.70
2018,02,20,12,04,1.70
2018,02,20,12,05,1.80
2018,02,20,12,06,1.80
2018,02,20,12,07,1.80
2018,02,20,12,08,1.90
2018,02,20,12,09,1.90
2018,02,20,12,10,1.90
2018,02,20,12,11,2.00
2018,02,20,12,12,2.00
2018,02,20,12,13,2.00
2018,02,20,12,14,2.10
2018,02,20,12,15,2.10
2018,02,20,12,16,2.10
2018,02,20,12,17,2.20
2018,02,20,12,18,2.20
2018,02,20,12,19,2.20
2018,02,20,12,20,2.20
2018,02,20,12,21,2.20
2018,02,20,12,22,2.20
2018,02,20,12,23,2.20
2018,02,20,12,24,2.20
2018,02,20,12,25,2.20
2018,02,20,12,26,2.20
2018,02,20,12,27,2.30
2018,02,20,12,28,2.30
2018,02,20,12,29,2.30
2018,02,20,12,30,2.30
2018,02,20,12,31,2.30
2018,02,20,12,32,2.30
2018,02,20,12,33,2.30
2018,02,20,12,34,2.30
2018,02,20,12,35,2.30
2018,02,20,12,36,2.30
2018,02,20,12,37,2.30
2018,02,20,12,38,2.30
2018,02,20,12,39,2.30
2018,02,20,12,40,2.30
2018,02,20,12,41,2.30
2018,02,20,12,42,2.30
2018,02,20,12,43,2.30
2018,02,20,12,44,2.20
2018,02,20,12,45,2.20
2018,02,20,12,46,2.20
2018,02,20,12,47,2.20
2018,02,20,12,48,2.20
2018,02,20,12,49,2.20
2018,02,20,12,50,2.20
2018,02,20,12,51,2.10
2018,02,20,12,52,2.10
2018,02,20,12,53,2.10
2018,02,20,12,54,2.10
2018,02,20,12,55,2.10
2018,02,20,12,56,2.10
2018,02,20,12,57,2.10
2018,02,20,12,58,2.10
2018,02,20,12,59,2.10
2018,02,20,13,00,2.10
2018,02,20,13,01,2.10
2018,02,20,13,02,2.10
2018,02,20,13,03,2.10
2018,02,20,13,04,2.10
2018,02,20,13,05,2.10
2018,02,20,13,06,2.10
2018,02,20,13,07,2.10
2018,02,20,13,08,2.10
2018,02,20,13,09,2.10
2018,02,20,13,10,2.10
2018,02,20,13,11,2.10
2018,02,20,13,12,2.20
2018,02,20,13,13,2.20
2018,02,20,13,14,2.20
2018,02,20,13,15,2.20
2018,02,20,13,16,2.20
2018,02,20,13,17,2.20
2018,02,20,13,18,2.20
2018,02,20,13,19,2.20
2018,02,20,13,20,2.20
2018,02,20,13,21,2.20
2018,02,20,13,22,2.20
2018,02,20,13,23,2.10
2018,02,20,13,24,2.10
2018,02,20,13,25,2.00
2018,02,20,13,26,2.00
2018,02,20,13,27,1.90
2018,02,20,13,28,1.90
2018,02,20,13,29,1.90
2018,02,20,13,30,1.90
2018,02,20,13,31,1.80
2018,02,20,13,32,1.80
2018,02,20,13,33,1.80
2018,02,20,13,34,1.80
2018,02,20,13,35,1.80
2018,02,20,13,36,1.80
2018,02,20,13,37,1.80
2018,02,20,13,38,1.80
2018,02,20,13,39,1.80
2018,02,20,13,40,1.80
2018,02,20,13,41,1.80
2018,02,20,13,42,1.80
2018,02,20,13,43,1.80
2018,02,20,13,44,1.80
2018,02,20,13,45,1.80
2018,02,20,13,46,1.80
2018,02,20,13,47,1.80
2018,02,20,13,48,1.70
2018,02,20,13,49,1.80
2018,02,20,13,50,1.70
2018,02,20,13,51,1.70
2018,02,20,13,52,1.70
2018,02,20,13,53,1.70
2018,02,20,13,54,1.70
2018,02,20,13,55,1.70
2018,02,20,13,56,1.70
2018,02,20,13,57,1.70
2018,02,20,13,58,1.70
2018,02,20,13,59,1.70
2018,02,20,14,00,1.70
2018,02,20,14,01,1.70
2018,02,20,14,02,1.70
2018,02,20,14,03,1.70
2018,02,20,14,04,1.60
2018,02,20,14,05,1.60
2018,02,20,14,06,1.60
2018,02,20,14,07,1.60
2018,02,20,14,08,1.60
2018,02,20,14,09,1.60
2018,02,20,14,10,1.60
2018,02,20,14,11,1.60
2018,02,20,14,12,1.60
2018,02,20,14,13,1.70
2018,02,20,14,14,1.70
2018,02,20,14,15,1.70
2018,02,20,14,16,1.70
2018,02,20,14,17,1.70
2018,02,20,14,18,1.70
2018,02,20,14,19,1.70
2018,02,20,14,20,1.70
2018,02,20,14,21,1.80
2018,02,20,14,22,1.80
2018,02,20,14,23,1.80
2018,02,20,14,24,1.80
2018,02,20,14,25,1.80
2018,02,20,14,26,1.80
2018,02,20,14,27,1.80
2018,02,20,14,28,1.80
2018,02,20,14,29,1.80
2018,02,20,14,30,1.80
2018,02,20,14,31,1.80
2018,02,20,14,32,1.80
2018,02,20,14,33,1.80
2018,02,20,14,34,1.80
2018,02,20,14,35,1.80
2018,02,20,14,36,1.70
2018,02,20,14,37,1.70
2018,02,20,14,38,1.70
2018,02,20,14,39,1.70
2018,02,20,14,40,1.70
2018,02,20,14,41,1.70
2018,02,20,14,42,1.60
2018,02,20,14,43,1.60
2018,02,20,14,44,1.60
2018,02,20,14,45,1.60
2018,02,20,14,46,1.60
2018,02,20,14,47,1.60
2018,02,20,14,48,1.60
2018,02,20,14,49,1.60
2018,02,20,14,50,1.60
2018,02,20,14,51,1.60
2018,02,20,14,52,1.60
2018,02,20,14,53,1.60
2018,02,20,14,54,1.50
2018,02,20,14,55,1.50
2018,02,20,14,56,1.50
2018,02,20,14,57,1.50
2018,02,20,14,58,1.50
2018,02,20,14,59,1.50
2018,02,20,15,00,1.50
2018,02,20,15,01,1.50
2018,02,20,15,02,1.50
2018,02,20,15,03,1.50
2018,02,20,15,04,1.50
2018,02,20,15,05,1.50
2018,02,20,15,06,1.50
2018,02,20,15,07,1.40
2018,02,20,15,08,1.40
2018,02,20,15,09,1.40
2018,02,20,15,10,1.40
2018,02,20,15,11,1.40
2018,02,20,15,12,1.40
2018,02,20,15,13,1.40
2018,02,20,15,14,1.40
2018,02,20,15,15,1.40
2018,02,20,15,16,1.40
2018,02,20,15,17,1.40
2018,02,20,15,18,1.30
2018,02,20,15,19,1.30
2018,02,20,15,20,1.30
2018,02,20,15,21,1.30
2018,02,20,15,22,1.30
2018,02,20,15,23,1.30
2018,02,20,15,24,1.30
2018,02,20,15,25,1.30
2018,02,20,15,26,1.30
2018,02,20,15,27,1.30
2018,02,20,15,28,1.30
2018,02,20,15,29,1.30
2018,02,20,15,30,1.30
2018,02,20,15,31,1.30
2018,02,20,15,32,1.30
2018,02,20,15,33,1.30
2018,02,20,15,34,1.40
2018,02,20,15,35,1.40
2018,02,20,15,36,1.40
2018,02,20,15,37,1.40
2018,02,20,15,38,1.50
2018,02,20,15,39,1.50
2018,02,20,15,40,1.50
2018,02,20,15,41,1.50
2018,02,20,15,42,1.50
2018,02,20,15,43,1.50
2018,02,20,15,44,1.50
2018,02,20,15,45,1.60
2018,02,20,15,46,1.60
2018,02,20,15,47,1.60
2018,02,20,15,48,1.60
2018,02,20,15,49,1.60
2018,02,20,15,50,1.70
2018,02,20,15,51,1.70
2018,02,20,15,52,1.70
2018,02,20,15,53,1.70
2018,02,20,15,54,1.60
2018,02,20,15,55,1.60
2018,02,20,15,56,1.60
2018,02,20,15,57,1.60
2018,02,20,15,58,1.60
2018,02,20,15,59,1.60
2018,02,20,16,00,1.60
2018,02,20,16,01,1.60
2018,02,20,16,02,1.50
2018,02,20,16,03,1.50
2018,02,20,16,04,1.50
2018,02,20,16,05,1.40
2018,02,20,16,06,1.40
2018,02,20,16,07,1.40
2018,02,20,16,08,1.40
2018,02,20,16,09,1.40
2018,02,20,16,10,1.30
2018,02,20,16,11,1.40
2018,02,20,16,12,1.40
2018,02,20,16,13,1.40
2018,02,20,16,14,1.50
2018,02,20,16,15,1.60
2018,02,20,16,16,1.60
2018,02,20,16,17,1.70
2018,02,20,16,18,1.70
2018,02,20,16,19,1.80
2018,02,20,16,20,1.80
2018,02,20,16,21,1.80
2018,02,20,16,22,1.80
2018,02,20,16,23,1.80
2018,02,20,16,24,1.80
2018,02,20,16,25,1.80
2018,02,20,16,26,1.80
2018,02,20,16,27,1.80
2018,02,20,16,28,1.80
2018,02,20,16,29,1.80
2018,02,20,16,30,1.80
2018,02,20,16,31,1.80
2018,02,20,16,32,1.80
2018,02,20,16,33,1.80
2018,02,20,16,34,1.80
2018,02,20,16,35,1.80
2018,02,20,16,36,1.70
2018,02,20,16,37,1.70
2018,02,20,16,38,1.70
2018,02,20,16,39,1.70
2018,02,20,16,40,1.70
2018,02,20,16,41,1.70
2018,02,20,16,42,1.70
2018,02,20,16,43,1.70
2018,02,20,16,44,1.70
2018,02,20,16,45,1.70
2018,02,20,16,46,1.70
2018,02,20,16,47,1.70
2018,02,20,16,48,1.70
2018,02,20,16,49,1.70
2018,02,20,16,50,1.70
2018,02,20,16,51,1.70
2018,02,20,16,52,1.70
2018,02,20,16,53,1.70
2018,02,20,16,54,1.70
2018,02,20,16,55,1.70
2018,02,20,16,56,1.70
2018,02,20,16,57,1.70
2018,02,20,16,58,1.70
2018,02,20,16,59,1.70
2018,02,20,17,00,1.60
2018,02,20,17,01,1.60
2018,02,20,17,02,1.60
2018,02,20,17,03,1.60
2018,02,20,17,04,1.50
2018,02,20,17,05,1.50
2018,02,20,17,06,1.50
2018,02,20,17,07,1.40
2018,02,20,17,08,1.40
2018,02,20,17,09,1.40
2018,02,20,17,10,1.30
2018,02,20,17,11,1.30
2018,02,20,17,12,1.30
2018,02,20,17,13,1.30
2018,02,20,17,14,1.30
2018,02,20,17,15,1.20
2018,02,20,17,16,1.20
2018,02,20,17,17,1.20
2018,02,20,17,18,1.20
2018,02,20,17,19,1.10
2018,02,20,17,20,1.10
2018,02,20,17,21,1.10
2018,02,20,17,22,1.00
2018,02,20,17,23,1.00
2018,02,20,17,24,0.90
2018,02,20,17,25,0.90
2018,02,20,17,26,0.80
2018,02,20,17,27,0.80
2018,02,20,17,28,0.80
2018,02,20,17,29,0.70
2018,02,20,17,30,0.70
2018,02,20,17,31,0.60
2018,02,20,17,32,0.60
2018,02,20,17,33,0.60
2018,02,20,17,34,0.50
2018,02,20,17,35,0.40
2018,02,20,17,36,0.40
2018,02,20,17,37,0.40
2018,02,20,17,38,0.30
2018,02,20,17,39,0.30
2018,02,20,17,40,0.30
2018,02,20,17,41,0.20
2018,02,20,17,42,0.20
2018,02,20,17,43,0.20
2018,02,20,17,44,0.10
2018,02,20,17,45,0.10
2018,02,20,17,46,0.10
2018,02,20,17,47,0.00
2018,02,20,17,48,0.00
2018,02,20,17,49,-0.10
2018,02,20,17,50,-0.10
2018,02,20,17,51,-0.10
2018,02,20,17,52,-0.20
2018,02,20,17,53,-0.20
2018,02,20,17,54,-0.20
2018,02,20,17,55,-0.20
2018,02,20,17,56,-0.30
2018,02,20,17,57,-0.30
2018,02,20,17,58,-0.30
2018,02,20,17,59,-0.30
2018,02,20,18,00,-0.40
2018,02,20,18,01,-0.40
2018,02,20,18,02,-0.40
2018,02,20,18,03,-0.50
2018,02,20,18,04,-0.50
2018,02,20,18,05,-0.50
2018,02,20,18,06,-0.60
2018,02,20,18,07,-0.60
2018,02,20,18,08,-0.60
2018,02,20,18,09,-0.60
2018,02,20,18,10,-0.60
2018,02,20,18,11,-0.70
2018,02,20,18,12,-0.70
2018,02,20,18,13,-0.70
2018,02,20,18,14,-0.70
2018,02,20,18,15,-0.70
2018,02,20,18,16,-0.70
2018,02,20,18,17,-0.80
2018,02,20,18,18,-0.80
2018,02,20,18,19,-0.80
2018,02,20,18,20,-0.80
2018,02,20,18,21,-0.80
2018,02,20,18,22,-0.80
2018,02,20,18,23,-0.80
2018,02,20,18,24,-0.80
2018,02,20,18,25,-0.80
2018,02,20,18,26,-0.80
2018,02,20,18,27,-0.80
2018,02,20,18,28,-0.80
2018,02,20,18,29,-0.80
2018,02,20,18,30,-0.80
2018,02,20,18,31,-0.80
2018,02,20,18,32,-0.80
2018,02,20,18,33,-0.90
2018,02,20,18,34,-0.90
2018,02,20,18,35,-0.90
2018,02,20,18,36,-0.90
2018,02,20,18,37,-0.90
2018,02,20,18,38,-0.90
2018,02,20,18,39,-0.90
2018,02,20,18,40,-0.90
2018,02,20,18,41,-0.90
2018,02,20,18,42,-1.00
2018,02,20,18,43,-1.00
2018,02,20,18,44,-1.00
2018,02,20,18,45,-1.10
2018,02,20,18,46,-1.10
2018,02,20,18,47,-1.10
2018,02,20,18,48,-1.20
2018,02,20,18,49,-1.20
2018,02,20,18,50,-1.20
2018,02,20,18,51,-1.20
2018,02,20,18,52,-1.20
2018,02,20,18,53,-1.20
2018,02,20,18,54,-1.20
2018,02,20,18,55,-1.20
2018,02,20,18,56,-1.30
2018,02,20,18,57,-1.30
2018,02,20,18,58,-1.30
2018,02,20,18,59,-1.30
2018,02,20,19,00,-1.30
2018,02,20,19,01,-1.30
2018,02,20,19,02,-1.30
2018,02,20,19,03,-1.40
2018,02,20,19,04,-1.40
2018,02,20,19,05,-1.40
2018,02,20,19,06,-1.40
2018,02,20,19,07,-1.40
2018,02,20,19,08,-1.50
2018,02,20,19,09,-1.50
2018,02,20,19,10,-1.50
2018,02,20,19,11,-1.50
2018,02,20,19,12,-1.60
2018,02,20,19,13,-1.60
2018,02,20,19,14,-1.60
2018,02,20,19,15,-1.60
2018,02,20,19,16,-1.60
2018,02,20,19,17,-1.70
2018,02,20,19,18,-1.70
2018,02,20,19,19,-1.70
2018,02,20,19,20,-1.70
2018,02,20,19,21,-1.70
2018,02,20,19,22,-1.70
2018,02,20,19,23,-1.70
2018,02,20,19,24,-1.70
2018,02,20,19,25,-1.80
2018,02,20,19,26,-1.80
2018,02,20,19,27,-1.80
2018,02,20,19,28,-1.80
2018,02,20,19,29,-1.80
2018,02,20,19,30,-1.80
2018,02,20,19,31,-1.80
2018,02,20,19,32,-1.80
2018,02,20,19,33,-1.80
2018,02,20,19,34,-1.80
2018,02,20,19,35,-1.80
2018,02,20,19,36,-1.80
2018,02,20,19,37,-1.80
2018,02,20,19,38,-1.80
2018,02,20,19,39,-1.80
2018,02,20,19,40,-1.80
2018,02,20,19,41,-1.80
2018,02,20,19,42,-1.80
2018,02,20,19,43,-1.80
2018,02,20,19,44,-1.80
2018,02,20,19,45,-1.80
2018,02,20,19,46,-1.80
2018,02,20,19,47,-1.80
2018,02,20,19,48,-1.80
2018,02,20,19,49,-1.80
2018,02,20,19,50,-1.80
2018,02,20,19,51,-1.80
2018,02,20,19,52,-1.80
2018,02,20,19,53,-1.80
2018,02,20,19,54,-1.80
2018,02,20,19,55,-1.80
2018,02,20,19,56,-1.80
2018,02,20,19,57,-1.80
2018,02,20,19,58,-1.70
2018,02,20,19,59,-1.70
2018,02,20,20,00,-1.70
2018,02,20,20,01,-1.70
2018,02,20,20,02,-1.70
2018,02,20,20,03,-1.70
2018,02,20,20,04,-1.70
2018,02,20,20,05,-1.70
2018,02,20,20,06,-1.70
2018,02,20,20,07,-1.70
2018,02,20,20,08,-1.70
2018,02,20,20,09,-1.70
2018,02,20,20,10,-1.70
2018,02,20,20,11,-1.70
2018,02,20,20,12,-1.70
2018,02,20,20,13,-1.70
2018,02,20,20,14,-1.70
2018,02,20,20,15,-1.70
2018,02,20,20,16,-1.70
2018,02,20,20,17,-1.70
2018,02,20,20,18,-1.70
2018,02,20,20,19,-1.70
2018,02,20,20,20,-1.70
2018,02,20,20,21,-1.80
2018,02,20,20,22,-1.80
2018,02,20,20,23,-1.80
2018,02,20,20,24,-1.80
2018,02,20,20,25,-1.80
2018,02,20,20,26,-1.80
2018,02,20,20,27,-1.80
2018,02,20,20,28,-1.80
2018,02,20,20,29,-1.80
2018,02,20,20,30,-1.80
2018,02,20,20,31,-1.80
2018,02,20,20,32,-1.80
2018,02,20,20,33,-1.80
2018,02,20,20,34,-1.80
2018,02,20,20,35,-1.80
2018,02,20,20,36,-1.80
2018,02,20,20,37,-1.80
2018,02,20,20,38,-1.80
2018,02,20,20,39,-1.80
2018,02,20,20,40,-1.90
2018,02,20,20,41,-1.90
2018,02,20,20,42,-1.90
2018,02,20,20,43,-1.90
2018,02,20,20,44,-1.90
2018,02,20,20,45,-1.90
2018,02,20,20,46,-1.90
2018,02,20,20,47,-1.90
2018,02,20,20,48,-1.90
2018,02,20,20,49,-1.90
2018,02,20,20,50,-1.90
2018,02,20,20,51,-1.90
2018,02,20,20,52,-2.00
2018,02,20,20,53,-2.00
2018,02,20,20,54,-2.00
2018,02,20,20,55,-2.00
2018,02,20,20,56,-2.00
2018,02,20,20,57,-2.10
2018,02,20,20,58,-2.10
2018,02,20,20,59,-2.10
2018,02,20,21,00,-2.10
2018,02,20,21,01,-2.20
2018,02,20,21,02,-2.20
2018,02,20,21,03,-2.20
2018,02,20,21,04,-2.20
2018,02,20,21,05,-2.20
2018,02,20,21,06,-2.20
2018,02,20,21,07,-2.20
2018,02,20,21,08,-2.20
2018,02,20,21,09,-2.20
2018,02,20,21,10,-2.20
2018,02,20,21,11,-2.20
2018,02,20,21,12,-2.20
2018,02,20,21,13,-2.20
2018,02,20,21,14,-2.20
2018,02,20,21,15,-2.20
2018,02,20,21,16,-2.20
2018,02,20,21,17,-2.20
2018,02,20,21,18,-2.20
2018,02,20,21,19,-2.20
2018,02,20,21,20,-2.20
2018,02,20,21,21,-2.30
2018,02,20,21,22,-2.30
2018,02,20,21,23,-2.30
2018,02,20,21,24,-2.30
2018,02,20,21,25,-2.30
2018,02,20,21,26,-2.30
2018,02,20,21,27,-2.30
2018,02,20,21,28,-2.30
2018,02,20,21,29,-2.30
2018,02,20,21,30,-2.30
2018,02,20,21,31,-2.30
2018,02,20,21,32,-2.30
2018,02,20,21,33,-2.30
2018,02,20,21,34,-2.30
2018,02,20,21,35,-2.30
2018,02,20,21,36,-2.30
2018,02,20,21,37,-2.30
2018,02,20,21,38,-2.30
2018,02,20,21,39,-2.30
2018,02,20,21,40,-2.30
2018,02,20,21,41,-2.30
2018,02,20,21,42,-2.30
2018,02,20,21,43,-2.30
2018,02,20,21,44,-2.30
2018,02,20,21,45,-2.30
2018,02,20,21,46,-2.30
2018,02,20,21,47,-2.30
2018,02,20,21,48,-2.30
2018,02,20,21,49,-2.30
2018,02,20,21,50,-2.30
2018,02,20,21,51,-2.30
2018,02,20,21,52,-2.30
2018,02,20,21,53,-2.30
2018,02,20,21,54,-2.30
2018,02,20,21,55,-2.30
2018,02,20,21,56,-2.30
2018,02,20,21,57,-2.30
2018,02,20,21,58,-2.30
2018,02,20,21,59,-2.30
2018,02,20,22,00,-2.30
2018,02,20,22,01,-2.30
2018,02,20,22,02,-2.30
2018,02,20,22,03,-2.30
2018,02,20,22,04,-2.30
2018,02,20,22,05,-2.30
2018,02,20,22,06,-2.30
2018,02,20,22,07,-2.30
2018,02,20,22,08,-2.30
2018,02,20,22,09,-2.30
2018,02,20,22,10,-2.30
2018,02,20,22,11,-2.30